Volver al catálogo

ARIANE 5 R/B

ActivoHEO
NORAD 36746·ROCKET BODY·🇫🇷 France

Lanzado Jun 26, 2010 desde Guiana Space Centre

Loading…

Próximos Pases (próximas 24 horas)

TLE

ActualizadoSource: Space-Track

Época: Sep 14, 2026, 10:23 UTC

1 36746U 10032C   26257.43317055  .00003374  00000-0  96114-3 0  9993
2 36746   1.7450 315.8516 7039059  47.2814 353.4093  2.58769128143804

Sigue ARIANE 5 R/B en tiempo real con AllMySat

Download on the App Store